Portada
METAR-TAF:

METAR-TAF

Aeroports :

Qeshm, Iran

latitud: 26-45-18N, longitud: 055-54-08E, altitud: 12 m

Observació

L'informe es va fer fa 40 minuts, a les 08:00 UTC
Vent 18 kt del Oest/Sud-Oest
Temperatura 32°C
Humitat 79%
Pressió 1004 hPa
Visibilitat: 4000 m
sorra,

METAR: OIKQ 190800Z 25018KT 4000 SA NSC 32/28 Q1004 NOSIG

Hora: 13:10 (08:40 UTC)


TAF: manca

Observacions i pronòstics meteorològics de més de 4000 aeroports (METAR i TAF).

Les estacions disponibles són els punts grocs i vermells al mapa.

Posi el ratolí al punt desitjat per veure el nom de l'estació.

Feu clic per veure les observacions i els pronòstics meteorològics.

Per canviar el mapa: feu clic els botons verds amb una creu de color negre per apropar; al botó verd amb un guió per allunyar la imatge; o en les fletxes verdes per a mapes adjacents.


METAR-TAF: